Voltar ao catálogo

STARLINK-37442

AtivoComunicaçõesSSO
NORAD 68811·PAYLOAD·🇺🇸 United States

Lançado Apr 23, 2026 de Vandenberg Space Force Base

Loading…

Próximas Passagens (próximas 24 horas)

TLE

AtualizadoSource: CelesTrak SupGP

Época: Sep 15, 2026, 03:25 UTC

1 68811C 26089K   26258.14284722 -.00037590  00000+0 -11666-2 0  2587
2 68811  97.2854 103.9639 0001946  88.7988  28.7535 15.33464550    17

Acompanhe STARLINK-37442 em tempo real com AllMySat

Download on the App Store